Weather History for FAKM - August, 2014

Change the Weather History Date:

Wednesday, August 20, 2014

  Actual Average Record
Temperature  
Mean Temperature 60 °F -  
Max Temperature 73 °F 75 °F - ()
Min Temperature 48 °F 46 °F - ()
Degree Days  
Heating Degree Days 4    
Growing Degree Days 10 (Base 50)    
Moisture  
Dew Point 43 °F    
Average Humidity 55    
Maximum Humidity 82    
Minimum Humidity 35    
Precipitation  
Precipitation 0.00 in 0.01 in - ()
Sea Level Pressure  
Sea Level Pressure 30.09 in    
Wind  
Wind Speed 8 mph ()    
Max Wind Speed 30 mph    
Max Gust Speed 46 mph    
Visibility 5.9 miles    
Events Rain    
T = Trace of Precipitation, MM = Missing Value Source: Averaged Metar Reports

Daily Weather History Graph

Daily Weather History Graph

Search for Another Location

Airport or City:

Trip Planner

Search our weather history database for the weather conditions in past years. The results will help you decide how hot, cold, wet, or windy it might be!

Date:

Astronomy

Aug. 20, 2014 Rise Set
Actual Time 6:48 AM SAST 6:00 PM SAST
Civil Twilight 6:24 AM SAST 6:24 PM SAST
Nautical Twilight 5:56 AM SAST 6:52 PM SAST
Astronomical Twilight 5:29 AM SAST 7:20 PM SAST
Moon 2:54 AM SAST (8/20) 1:49 PM SAST (8/20)
Length of Visible Light 12h 00m
Length of Day
11h 12m
Waning Crescent, 23% of the Moon is Illuminated
Aug 20
Waning Crescent
Aug 25
New
Sep 2
First Quarter
Sep 9
Full
Sep 16
Last Quarter

Hourly Weather History & Observations

Time (SAST) Temp. Dew Point Humidity Pressure Visibility Wind Dir Wind Speed Gust Speed Precip Events Conditions
12:00 AM 53.6 °F 39.2 °F 58% 30.15 in - West 3.5 mph - N/A   Unknown
1:00 AM 57.2 °F 37.4 °F 48% 30.15 in - SSE 6.9 mph - N/A   Unknown
2:00 AM 58 °F 41 °F 43%  in - NNW 3.5 mph - -  
2:00 AM 57.2 °F 41.0 °F 55% 30.15 in - NNW 3.5 mph - N/A   Unknown
3:00 AM 55.4 °F 41.0 °F 58% 30.12 in - NNE 5.8 mph - N/A   Unknown
4:00 AM 53.6 °F 41.0 °F 62% 30.09 in - SE 3.5 mph - N/A   Unknown
5:00 AM 53 °F 43 °F 60%  in 25 mi South 2.3 mph - -   Scattered Clouds
5:00 AM 51.8 °F 42.8 °F 71% 30.09 in 6.2 mi South 2.3 mph - N/A   Partly Cloudy
6:00 AM 55.4 °F 39.2 °F 54% 30.09 in 6.2 mi ENE 4.6 mph - N/A   Partly Cloudy
6:42 AM 59.0 °F 41.0 °F 51% 30.09 in 6.2 mi NE 9.2 mph - N/A   Mostly Cloudy
7:00 AM 59.0 °F 41.0 °F 51% 30.09 in 6.2 mi NE 11.5 mph - N/A   Mostly Cloudy
8:00 AM 57 °F 42 °F 46%  in 25 mi NNE 15.0 mph - -   Mostly Cloudy
8:00 AM 57.2 °F 41.0 °F 55% 30.12 in 6.2 mi NNE 13.8 mph - N/A   Partly Cloudy
9:00 AM 55.4 °F 46.4 °F 72% 30.15 in 6.2 mi WNW 9.2 mph - N/A   Partly Cloudy
10:00 AM 57.2 °F 44.6 °F 63% 30.12 in 6.2 mi NNE 9.2 mph - N/A   Mostly Cloudy
11:00 AM 63 °F 43 °F 37%  in 25 mi North 12.7 mph - -   Mostly Cloudy
11:00 AM 62.6 °F 42.8 °F 48% 30.09 in 6.2 mi North 12.7 mph - N/A   Mostly Cloudy
11:40 AM 68.0 °F 41.0 °F 37% 30.06 in 6.2 mi North 16.1 mph - N/A   Scattered Clouds
12:00 PM 69.8 °F 41.0 °F 35% 30.06 in 6.2 mi North 15.0 mph - N/A   Scattered Clouds
1:00 PM 69.8 °F 41.0 °F 35% 30.04 in 6.2 mi WNW 17.3 mph - N/A   Mostly Cloudy
1:28 PM 68.0 °F 39.2 °F 35% 30.06 in 5.0 mi WNW 15.0 mph - N/A   Partly Cloudy
1:30 PM 68.0 °F 41.0 °F 37% 30.06 in 5.0 mi WNW 17.3 mph - N/A Rain Light Rain Showers
1:39 PM 62.6 °F 44.6 °F 52% 30.09 in 3.7 mi WNW 17.3 mph - N/A Rain Light Rain Showers
2:00 PM 63 °F 49 °F 49%  in 5 mi West 29.9 mph - - Rain Light Rain
2:00 PM 62.6 °F 48.2 °F 59% 30.09 in 5.0 mi West 29.9 mph 46.0 mph N/A Rain Light Rain
2:05 PM 60.8 °F 50.0 °F 68% 30.06 in 6.2 mi West 23.0 mph 38.0 mph N/A   Mostly Cloudy
2:27 PM 62.6 °F 48.2 °F 59% 30.06 in 6.2 mi West 10.4 mph - N/A Rain Light Rain
2:34 PM 62.6 °F 48.2 °F 59% 30.06 in 6.2 mi West 12.7 mph - N/A   Mostly Cloudy
3:00 PM 64.4 °F 46.4 °F 52% 30.06 in 6.2 mi West 12.7 mph - N/A   Mostly Cloudy
4:00 PM 62.6 °F 42.8 °F 48% 30.09 in 6.2 mi WSW 12.7 mph - N/A   Mostly Cloudy
5:00 PM 60 °F 42 °F 41%  in 25 mi WSW 3.5 mph - -   Partly Cloudy
5:00 PM 59.0 °F 41.0 °F 51% 30.09 in 6.2 mi WSW 2.3 mph - N/A   Mostly Cloudy
6:00 PM 57.2 °F 44.6 °F 63% 30.06 in 6.2 mi SSW 12.7 mph - N/A   Mostly Cloudy
7:00 PM 55.4 °F 42.8 °F 63% 30.09 in 6.2 mi SSW 5.8 mph - N/A   Mostly Cloudy
8:00 PM 53 °F 43 °F 61%  in 25 mi SSE 3.5 mph - -   Mostly Cloudy
8:00 PM 51.8 °F 42.8 °F 71% 30.09 in - SSE 3.5 mph - N/A   Clear
9:00 PM 51.8 °F 42.8 °F 71% 30.12 in - ENE 3.5 mph - N/A   Unknown
10:00 PM 50.0 °F 42.8 °F 76% 30.12 in - ENE 2.3 mph - N/A   Unknown
11:00 PM 48 °F 43 °F 78%  in - South 3.5 mph - -  
11:00 PM 48.2 °F 42.8 °F 82% 30.09 in - South 3.5 mph - N/A   Unknown